Hilo, HI

5:17 AM HST on November 22, 2017 (GMT -1000)
Hilo International

Weather History for PHTO - March, 2013

Change the Weather History Date:

Friday, March 8, 2013

  Actual Average Record
Temperature  
Mean Temperature 72 °F 72 °F  
Max Temperature 79 °F 79 °F 90 °F (2016)
Min Temperature 64 °F 64 °F 60 °F (1966)
Degree Days  
Heating Degree Days 0 0  
Month to date heating degree days 2 0  
Since 1 July heating degree days 2 0  
Cooling Degree Days 7 7  
Month to date cooling degree days 54 53  
Year to date cooling degree days 426 423  
Growing Degree Days 22 (Base 50)    
Moisture  
Dew Point 62 °F    
Average Humidity 74    
Maximum Humidity 93    
Minimum Humidity 54    
Precipitation  
Precipitation 0.06 in 0.42 in 7.13 in (2009)
Month to date precipitation 0.70 3.26  
Year to date precipitation 32.20 22.08  
Snow  
Snow 0.00 in - - ()
Month to date snowfall 0.0  
Since 1 July snowfall 0.0  
Snow Depth 0.00 in    
Sea Level Pressure  
Sea Level Pressure 29.98 in    
Wind  
Wind Speed 8 mph (South)    
Max Wind Speed 21 mph    
Max Gust Speed 26 mph    
Visibility 10 miles    
Events Rain    
T = Trace of Precipitation, MM = Missing Value Source: NWS Daily Summary

Daily Weather History Graph

Daily Weather History Graph

Search for Another Location

Airport or City:

Trip Planner

Search our weather history database for the weather conditions in past years. The results will help you decide how hot, cold, wet, or windy it might be!

Date:

Astronomy

Mar. 08, 2013 Rise Set
Actual Time 6:33 AM HST 6:27 PM HST
Civil Twilight 6:11 AM HST 6:49 PM HST
Nautical Twilight 5:46 AM HST 7:15 PM HST
Astronomical Twilight 5:21 AM HST 7:40 PM HST
Moon 4:05 AM HST (3/8) 3:52 PM HST (3/8)
Length of Visible Light 12h 37m
Length of Day
11h 53m
Waning Crescent, 10% of the Moon is Illuminated
Mar 8
Waning Crescent
Mar 11
New
Mar 19
First Quarter
Mar 26
Full
Apr 2
Last Quarter

Hourly Weather History & Observations

Time (HST) Temp. Dew Point Humidity Pressure Visibility Wind Dir Wind Speed Gust Speed Precip Events Conditions
12:53 AM 64.9 °F 60.1 °F 84% 30.05 in 10.0 mi Calm Calm - N/A   Overcast
1:06 AM 64.9 °F 61.0 °F 87% 30.05 in 10.0 mi Calm Calm - N/A   Overcast
1:53 AM 66.9 °F 61.0 °F 81% 30.03 in 10.0 mi SSE 6.9 mph - N/A   Overcast
2:09 AM 66.9 °F 62.1 °F 84% 30.03 in 10.0 mi South 4.6 mph - N/A   Overcast
2:53 AM 66.9 °F 62.1 °F 84% 30.01 in 10.0 mi SSW 3.5 mph - N/A   Overcast
3:53 AM 66.0 °F 60.1 °F 81% 29.99 in 10.0 mi SW 3.5 mph - 0.00 in   Overcast
4:17 AM 66.0 °F 61.0 °F 84% 29.99 in 5.0 mi SW 5.8 mph - 0.00 in Rain Light Rain
4:53 AM 64.0 °F 62.1 °F 93% 29.99 in 4.0 mi West 5.8 mph - 0.04 in Rain Heavy Rain
5:10 AM 64.0 °F 62.1 °F 93% 29.99 in 7.0 mi SW 4.6 mph - 0.02 in   Overcast
5:53 AM 64.0 °F 60.1 °F 87% 30.00 in 10.0 mi SSW 4.6 mph - 0.02 in   Overcast
6:53 AM 64.9 °F 62.1 °F 90% 30.00 in 10.0 mi SW 6.9 mph - N/A   Mostly Cloudy
7:53 AM 68.0 °F 62.1 °F 81% 30.01 in 10.0 mi SSW 4.6 mph - N/A   Scattered Clouds
8:53 AM 71.1 °F 62.1 °F 73% 30.02 in 10.0 mi South 4.6 mph - N/A   Scattered Clouds
9:53 AM 75.0 °F 64.0 °F 69% 30.01 in 10.0 mi SSE 8.1 mph - N/A   Scattered Clouds
10:53 AM 78.1 °F 63.0 °F 60% 29.99 in 10.0 mi SSE 11.5 mph - N/A   Partly Cloudy
11:53 AM 79.0 °F 62.1 °F 56% 29.97 in 10.0 mi East 15.0 mph - N/A   Mostly Cloudy
12:53 PM 79.0 °F 63.0 °F 58% 29.94 in 10.0 mi East 19.6 mph 25.3 mph N/A   Overcast
1:53 PM 79.0 °F 63.0 °F 58% 29.91 in 10.0 mi ESE 18.4 mph 26.5 mph N/A   Mostly Cloudy
2:53 PM 79.0 °F 62.1 °F 56% 29.89 in 10.0 mi SE 13.8 mph - N/A   Mostly Cloudy
3:53 PM 79.0 °F 60.1 °F 52% 29.89 in 10.0 mi ESE 15.0 mph - N/A   Partly Cloudy
4:53 PM 79.0 °F 61.0 °F 54% 29.91 in 10.0 mi SE 11.5 mph - N/A   Partly Cloudy
5:53 PM 77.0 °F 63.0 °F 62% 29.92 in 10.0 mi ESE 9.2 mph - N/A   Mostly Cloudy
6:53 PM 75.0 °F 63.0 °F 66% 29.94 in 10.0 mi SSE 5.8 mph - N/A   Overcast
7:53 PM 71.6 °F 62.6 °F 73% 29.97 in 10.0 mi South 4.6 mph - N/A   Mostly Cloudy
8:53 PM 69.8 °F 62.6 °F 78% 29.99 in 10.0 mi SW 6.9 mph - N/A   Mostly Cloudy
9:53 PM 68.0 °F 61.0 °F 78% 30.01 in 10.0 mi Calm Calm - N/A   Mostly Cloudy
10:53 PM 69.8 °F 60.8 °F 73% 30.00 in 10.0 mi SSW 4.6 mph - N/A   Clear
11:53 PM 66.9 °F 59.0 °F 76% 29.99 in 10.0 mi SSW 3.5 mph - N/A   Scattered Clouds